Flag for Norway Weather past 2 weeks in Rygge, Norway

Now
59 °F

Sunny.


Feels Like: 60 °F
Forecast: 43 / 65 °F
Wind: 3 mph from Northeast

Location: Rygge


UV Index: 0 (Low)

Visibility: 25 mi


Pressure: 30.15 "Hg

Humidity: 53%

Dew point: 42 °F

Location of RyggeLocation

Historic Weather in Rygge

°F

Rygge temperature yesterday

Maximum temperature yesterday: 64 °F (at 4:00 PM)
Minimum temperature yesterday: 32 °F (at 6:00 AM)
Average temperature yesterday: 49 °F

Past Weeks' High & Low Weather Summary

 TemperatureHumidityPressure
High64 °F (Apr 20, 4:00 PM)100% (Apr 7, 7:00 AM)30.34 "Hg (Apr 7, 7:00 AM)
Low30 °F (Apr 16, 3:00 AM)26% (Apr 15, 6:00 PM)29.38 "Hg (Apr 13, 6:00 AM)
Average44 °F78%29.90 "Hg
* Reported Apr 6 10:00 AM — Apr 21 10:00 AM, Rygge, Weather by CustomWeather, © 2014

Note: Actual official high and low records may vary slightly from our data, if they occured in-between our weather recording intervals... More about our weather records

Advertising

Historic Weather Conditions — Data for Previous 24 hours

 ConditionsComfort  
Time TempWeatherWind HumidityBarometerVisibility
10:00 AM
Apr 21
56 °FSunny.3 mph60%30.16 "Hg22 mi
9:00 AM52 °FSunny.3 mph65%30.16 "Hg19 mi
8:00 AM47 °FSunny.3 mph75%30.16 "Hg15 mi
7:00 AM42 °FSunny.2 mph86%30.16 "Hg19 mi
6:00 AM40 °FSunny.2 mph91%30.16 "Hg25 mi
5:00 AM40 °FClear.2 mph92%30.16 "Hg19 mi
4:00 AM40 °FClear.2 mph92%30.16 "Hg19 mi
3:00 AM41 °FClear.2 mph92%30.16 "Hg17 mi
2:00 AM42 °FClear.2 mph91%30.17 "Hg25 mi
1:00 AM43 °FClear.2 mph90%30.17 "Hg25 mi
12:00 AM46 °FClear.2 mph81%30.16 "Hg28 mi
11:00 PM
Apr 20
48 °FClear.1 mph80%30.16 "Hg31 mi
10:00 PM51 °FClear.2 mph70%30.16 "Hg31 mi
9:00 PM54 °FClear.2 mph64%30.16 "Hg31 mi
8:00 PM60 °FSunny.1 mph47%30.14 "Hg28 mi
7:00 PM62 °FSunny.2 mph44%30.14 "Hg28 mi
6:00 PM63 °FSunny.2 mph44%30.15 "Hg22 mi
5:00 PM63 °FSunny.3 mph43%30.16 "Hg25 mi
4:00 PM64 °FSunny.2 mph42%30.18 "Hg25 mi
3:00 PM62 °FSunny.3 mph48%30.19 "Hg22 mi
2:00 PM62 °FSunny.5 mph51%30.20 "Hg19 mi
1:00 PM62 °FScattered clouds.2 mph49%30.21 "Hg19 mi
12:00 PM60 °FPartly sunny.2 mph53%30.22 "Hg22 mi
Weather by CustomWeather, © 2014

See weather overview